Notices

What's New in latest Release from April 7th, 2021:

- Updated Glossary, including Speed of Maximum Gust, and Total Hourly Precipitation

- Updated national and regional climate services offices contacts and prices information

- Addition of station inventory lists for 1981-2010, 1971-2000, and 1961-1990 Normals.

If you haven't already, please take our survey and provide feedback about our website: https://eccc.sondage-survey.ca/f/LanguageSelection.aspx?s=442ca660-fcf1-47c0-95a9-59707d6fd709

Hourly Data Report for March 16, 2017

TORONTO CITY
ONTARIO

43°40'00.000" N
79°24'00.000" W
112.50 m
6158355
71508
XTO

Download Data

Hourly Data (March 2017)
Hourly Data Report for March 16, 2017
TIME
LST
Temp Definition
°C
Dew Point Definition
°C
Rel Hum Definition
%
Precip. Amount Definition
mm

Wind Dir Definition
10's deg

Wind Spd Definition
km/h
Visibility Definition
km
Stn Press Definition
kPa
Hmdx Definition


Wind Chill Definition


Weather Definition


00:00 -4.9 -13.2 52 0.0 LegendMM LegendMM   100.15     LegendNANA
01:00 -5.6 -13.3 55 0.0 LegendMM LegendMM   100.17     LegendNANA
02:00 -5.0 -13.9 50 0.0 LegendMM LegendMM   100.20     LegendNANA
03:00 -5.4 -14.2 50 0.0 LegendMM LegendMM   100.20     LegendNANA
04:00 -6.1 -13.6 55 0.0 LegendMM LegendMM   100.24     LegendNANA
05:00 -6.5 -12.7 61 0.0 LegendMM LegendMM   100.29     LegendNANA
06:00 -6.2 -12.1 63 0.0 LegendMM LegendMM   100.36     LegendNANA
07:00 -5.9 -12.6 59 0.0 LegendMM LegendMM   100.41     LegendNANA
08:00 -4.3 -11.9 55 0.0 LegendMM LegendMM   100.44     LegendNANA
09:00 -3.1 -10.8 55 0.0 LegendMM LegendMM   100.49     LegendNANA
10:00 -1.7 -9.7 55 0.0 LegendMM LegendMM   100.53     LegendNANA
11:00 -0.7 -10.1 49 0.0 LegendMM LegendMM   100.54     LegendNANA
12:00 0.7 -9.7 46 0.0 LegendMM LegendMM   100.53     LegendNANA
13:00 1.1 -11.9 37 0.0 LegendMM LegendMM   100.51     LegendNANA
14:00 2.3 -12.0 34 0.0 LegendMM LegendMM   100.48     LegendNANA
15:00 2.4 -10.6 38 0.0 LegendMM LegendMM   100.48     LegendNANA
16:00 2.0 -10.9 38 0.0 LegendMM LegendMM   100.49     LegendNANA
17:00 1.7 -11.6 36 0.0 LegendMM LegendMM   100.53     LegendNANA
18:00 1.0 -11.6 39 0.0 LegendMM LegendMM   100.60     LegendNANA
19:00 0.1 -11.2 42 0.0 LegendMM LegendMM   100.69     LegendNANA
20:00 -0.3 -10.9 44 0.0 LegendMM LegendMM   100.76     LegendNANA
21:00 -0.7 -10.1 49 0.0 LegendMM LegendMM   100.80     LegendNANA
22:00 -1.2 -9.1 55 0.0 LegendMM LegendMM   100.82     LegendNANA
23:00 -1.8 -8.1 62 0.0 LegendMM LegendMM   100.84     LegendNANA

Notes on Data Quality.

Legend

  • E = Estimated
  • M = Missing
  • NA = Not Available*
  • [empty] = Indicates an unobserved value
Date modified: